{"data":{"norad_id":67661,"epoch":"2026-05-25T02:09:35.572320Z","epoch_age_seconds":60523,"freshness":"FRESH","line1":"1 67661U 26022P   26145.08999505  .00011755  00000+0  36577-3 0  9990","line2":"2 67661  97.2824 178.3842 0001383 102.9477 257.1920 15.33453002 17288","mean_motion":15.33453002,"eccentricity":0.0001383,"inclination_deg":97.2824,"raan_deg":178.3842,"arg_perigee_deg":102.9477,"mean_anomaly_deg":257.192,"bstar":0.00036577,"rev_number":1728,"period_min":93.905714627177,"perigee_km":464.5728885841,"apogee_km":466.465843935,"semimajor_km":6843.6563662595,"source":"CELESTRAK","updated_at":"2026-05-25T13:38:21.659505Z"}}